EW3190 Weather Reports


time (UTC)temp
C
wind
direction
speed
KPH
gust
KPH
rain 1hr
cm
rain 24hr
cm
rain mn
cm
humidity
%
barometer
mb
20260505195017 24 158 29.0 45.1 0.00 0.00 0.00 42 1008.4
20260505194027 24 135 22.5 37.0 0.00 0.00 0.00 44 1008.4
20260505193017 24 158 29.0 48.3 0.00 0.00 0.00 42 1008.6
20260505192017 24 158 29.0 40.2 0.00 0.00 0.00 44 1008.5
20260505191017 24 158 27.4 40.2 0.00 0.00 0.00 41 1008.7
20260505190037 24 158 27.4 37.0 0.00 0.00 0.00 44 1008.6
20260505185016 25 135 19.3 37.0 0.00 0.00 0.00 46 1008.9
20260505184017 24 158 20.9 37.0 0.00 0.00 0.00 47 1009.1
20260505183017 24 158 16.1 30.6 0.00 0.00 0.00 47 1009.1
20260505182017 25 135 20.9 43.5 0.00 0.00 0.00 47 1009.4
20260505181016 24 225 24.1 40.2 0.00 0.00 0.00 41 1009.1
20260505180017 25 225 17.7 32.2 0.00 0.00 0.00 43 1009.4
20260505175016 24 225 22.5 35.4 0.00 0.00 0.00 41 1009.4
20260505174021 24 225 25.7 41.8 0.00 0.00 0.00 40 1009.3
20260505173017 24 225 19.3 32.2 0.00 0.00 0.00 43 1009.6
20260505172017 23 180 25.7 38.6 0.00 0.00 0.00 43 1009.7
20260505171016 23 248 30.6 46.7 0.00 0.00 0.00 42 1009.6
20260505170017 23 225 20.9 35.4 0.00 0.00 0.00 44 1009.9
20260505165017 23 248 20.9 40.2 0.00 0.00 0.00 46 1010.1
20260505164016 23 248 29.0 45.1 0.00 0.00 0.00 46 1010.0
20260505163016 23 248 25.7 43.5 0.00 0.00 0.00 46 1010.1
20260505162016 23 248 20.9 32.2 0.00 0.00 0.00 47 1010.3
20260505161037 22 270 27.4 43.5 0.00 0.00 0.00 48 1010.2
20260505153036 22 225 19.3 30.6 0.00 0.00 0.00 51 1010.6
20260505152017 22 270 14.5 25.7 0.00 0.00 0.00 54 1010.7
20260505151016 21 248 19.3 30.6 0.00 0.00 0.00 54 1010.6
20260505140516 -17 0.0 0.0 0.00 0.00 0.00
20260505125016 -17 0.0 0.0 0.00 0.00 0.00
20260505124509 -17 0.0 0.0 0.00 0.00 0.00
20260505124118 -17 0.0 0.0 0.00 0.00 0.00
20260505123516 -17 0.0 0.0 0.00 0.00 0.00
20260505122516 -17 0.0 0.0 0.00 0.00 0.00
20260505122011 -17 0.0 0.0 0.00 0.00 0.00
20260505121620 -17 0.0 0.0 0.00 0.00 0.00
20260505121021 -17 0.0 0.0 0.00 0.00 0.00
20260505120036 -17 0.0 0.0 0.00 0.00 0.00
20260505115511 -17 0.0 0.0 0.00 0.00 0.00
20260505115121 -17 0.0 0.0 0.00 0.00 0.00
20260505114536 -17 0.0 0.0 0.00 0.00 0.00
20260505113526 -17 0.0 0.0 0.00 0.00 0.00
20260505113017 -17 0.0 0.0 0.00 0.00 0.00
20260505112642 -17 0.0 0.0 0.00 0.00 0.00
20260505112026 -17 0.0 0.0 0.00 0.00 0.00
20260505111027 -17 0.0 0.0 0.00 0.00 0.00
20260505110513 -17 0.0 0.0 0.00 0.00 0.00
20260505110122 -17 0.0 0.0 0.00 0.00 0.00
20260505102026 -17 0.0 0.0 0.00 0.00 0.00
20260505101514 -17 0.0 0.0 0.00 0.00 0.00
20260505101119 -17 0.0 0.0 0.00 0.00 0.00
20260505100516 -17 0.0 0.0 0.00 0.00 0.00
20260505095536 -17 0.0 0.0 0.00 0.00 0.00
20260505095014 -17 0.0 0.0 0.00 0.00 0.00
20260505094618 -17 0.0 0.0 0.00 0.00 0.00
20260505094016 -17 0.0 0.0 0.00 0.00 0.00
20260505093016 -17 0.0 0.0 0.00 0.00 0.00
20260505092504 -17 0.0 0.0 0.00 0.00 0.00 66
20260505092113 -17 180 16.1 29.0 0.00 0.00 0.00 66
20260505091056 16 180 12.9 20.9 0.00 0.00 0.00 66 1009.9
20260505090056 16 180 12.9 19.3 0.00 0.00 0.00 66 1009.9
20260505085041 16 180 14.5 24.1 0.00 0.00 0.00 65 1010.0
20260505084041 16 158 16.1 22.5 0.00 0.00 0.00 65 1009.8
20260505083016 16 158 19.3 25.7 0.00 0.00 0.00 64 1009.8
20260505082016 16 158 20.9 27.4 0.00 0.00 0.00 64 1009.7
20260505081036 16 158 19.3 27.4 0.00 0.00 0.00 64 1009.7
20260505080026 16 158 20.9 32.2 0.00 0.00 0.00 63 1009.6
20260505075016 16 158 20.9 25.7 0.00 0.00 0.00 64 1009.6
20260505074036 16 158 16.1 22.5 0.00 0.00 0.00 64 1009.8
20260505073016 16 158 16.1 27.4 0.00 0.00 0.00 64 1009.7
20260505072016 16 158 11.3 16.1 0.00 0.00 0.00 64 1010.0
20260505071021 16 180 12.9 22.5 0.00 0.00 0.00 64 1010.1
20260505070016 16 180 11.3 17.7 0.00 0.00 0.00 64 1010.1
20260505065016 16 180 16.1 25.7 0.00 0.00 0.00 64 1010.1
20260505064016 16 180 12.9 20.9 0.00 0.00 0.00 64 1010.1
20260505063016 16 158 16.1 24.1 0.00 0.00 0.00 63 1010.0
20260505062015 16 180 14.5 22.5 0.00 0.00 0.00 63 1010.1
20260505061016 16 180 17.7 25.7 0.00 0.00 0.00 63 1010.0
20260505060016 16 158 19.3 33.8 0.00 0.00 0.00 63 1010.0
20260505055036 16 158 22.5 35.4 0.00 0.00 0.00 62 1009.8
20260505054036 16 158 19.3 30.6 0.00 0.00 0.00 62 1009.8
20260505053016 16 158 20.9 32.2 0.00 0.00 0.00 62 1009.9
20260505052036 16 158 24.1 32.2 0.00 0.00 0.00 61 1010.0
20260505051016 16 158 24.1 35.4 0.00 0.00 0.00 60 1009.9
20260505041036 17 135 25.7 43.5 0.00 0.00 0.00 55 1010.0
20260505040017 17 135 24.1 45.1 0.00 0.00 0.00 55 1009.9
20260505035035 17 135 29.0 45.1 0.00 0.00 0.00 54 1009.8
20260505034015 17 135 25.7 43.5 0.00 0.00 0.00 53 1009.7
20260505033015 17 135 27.4 48.3 0.00 0.00 0.00 53 1009.6
20260505032015 17 135 32.2 49.9 0.00 0.00 0.00 52 1009.7
20260505031015 17 135 37.0 56.3 0.00 0.00 0.00 52 1009.8
20260505030020 17 135 33.8 54.7 0.00 0.00 0.00 52 1009.7
20260505025015 17 135 33.8 57.9 0.00 0.00 0.00 52 1009.9
20260505024017 17 135 27.4 53.1 0.00 0.00 0.00 53 1009.9
20260505023015 17 113 29.0 43.5 0.00 0.00 0.00 53 1009.8
20260505022037 17 113 30.6 41.8 0.00 0.00 0.00 53 1009.9
20260505021015 17 113 29.0 46.7 0.00 0.00 0.00 52 1010.1
20260505020037 17 113 30.6 46.7 0.00 0.00 0.00 51 1010.1
20260505015015 17 135 30.6 41.8 0.00 0.00 0.00 50 1010.2
20260505014027 17 113 29.0 45.1 0.00 0.00 0.00 50 1010.2
20260505013035 17 113 25.7 41.8 0.00 0.00 0.00 50 1009.9
20260505012017 17 135 29.0 46.7 0.00 0.00 0.00 50 1010.0
20260505011017 17 135 24.1 38.6 0.00 0.00 0.00 50 1010.0
20260505010017 17 113 24.1 49.9 0.00 0.00 0.00 50 1009.8
20260505005017 17 113 24.1 40.2 0.00 0.00 0.00 51 1009.7
20260505004036 17 113 24.1 43.5 0.00 0.00 0.00 50 1009.7
20260505003017 17 113 22.5 33.8 0.00 0.00 0.00 50 1009.6
20260505002017 17 113 22.5 32.2 0.00 0.00 0.00 50 1009.6
20260505001017 17 113 22.5 35.4 0.00 0.00 0.00 50 1009.6
20260505000044 18 113 19.3 33.8 0.00 0.00 0.00 50 1009.5
20260504235017 18 113 17.7 30.6 0.00 0.00 0.00 49 1009.5
20260504234017 18 113 17.7 37.0 0.00 0.00 0.00 48 1009.5
20260504233027 18 135 24.1 37.0 0.00 0.00 0.00 47 1009.3
20260504232017 18 135 16.1 30.6 0.00 0.00 0.00 47 1009.5
20260504231017 18 135 20.9 32.2 0.00 0.00 0.00 46 1009.3
20260504225017 18 113 24.1 38.6 0.00 0.00 0.00 46 1009.3
20260504224018 19 135 22.5 35.4 0.00 0.00 0.00 45 1009.3
20260504223110 19 135 19.3 37.0 0.00 0.00 0.00 45 1009.4
20260504222102 20 135 19.3 32.2 0.00 0.00 0.00 44 1009.4
20260504221102 20 135 16.1 30.6 0.00 0.00 0.00 43 1009.5
20260504220059 20 225 16.1 29.0 0.00 0.00 0.00 41 1009.6
20260504215017 20 180 17.7 32.2 0.00 0.00 0.00 41 1009.6
20260504214017 20 225 16.1 30.6 0.00 0.00 0.00 41 1009.5
20260504213034 20 158 20.9 35.4 0.00 0.00 0.00 41 1009.6
20260504212017 20 225 14.5 25.7 0.00 0.00 0.00 41 1009.7
20260504211017 20 248 16.1 27.4 0.00 0.00 0.00 41 1009.6
20260504210120 20 248 17.7 32.2 0.00 0.00 0.00 42 1009.7
20260504205027 20 248 17.7 32.2 0.00 0.00 0.00 41 1009.7
20260504204017 20 248 16.1 29.0 0.00 0.00 0.00 41 1009.9
20260504203017 20 225 20.9 38.6 0.00 0.00 0.00 41 1009.7
20260504202017 20 270 14.5 29.0 0.00 0.00 0.00 41 1009.9
20260504201017 20 225 19.3 30.6 0.00 0.00 0.00 42 1010.1
20260504200115 20 180 19.3 37.0 0.00 0.00 0.00 41 1010.2